TimeCDT,TemperatureF,Dew PointF,Humidity,Sea Level PressureIn,VisibilityMPH,Wind Direction,Wind SpeedMPH,Gust SpeedMPH,PrecipitationIn,Events,Conditions,WindDirDegrees,DateUTC
12:56 AM,39.0,27.0,62,30.17,10.0,Calm,Calm,-,N/A,,Overcast,0,2013-04-26 05:56:00
1:56 AM,41.0,26.1,55,30.16,10.0,SSE,8.1,-,N/A,,Overcast,150,2013-04-26 06:56:00
2:56 AM,42.1,25.0,51,30.13,10.0,SE,5.8,-,N/A,,Overcast,130,2013-04-26 07:56:00
3:56 AM,43.0,28.0,56,30.09,10.0,SSE,12.7,-,N/A,,Mostly Cloudy,160,2013-04-26 08:56:00
4:56 AM,44.1,28.9,55,30.10,10.0,SSW,8.1,-,N/A,,Overcast,200,2013-04-26 09:56:00
5:56 AM,43.0,30.0,60,30.11,10.0,South,5.8,-,0.00,Rain,Light Rain,180,2013-04-26 10:56:00
6:56 AM,44.1,34.0,68,30.06,9.0,SSE,26.5,29.9,0.02,Rain,Rain,160,2013-04-26 11:56:00
7:56 AM,46.9,34.0,61,30.04,10.0,South,16.1,-,0.00,,Mostly Cloudy,180,2013-04-26 12:56:00
8:56 AM,51.1,35.1,54,30.06,10.0,South,17.3,26.5,N/A,,Partly Cloudy,180,2013-04-26 13:56:00
9:56 AM,55.0,35.1,47,30.06,10.0,SSW,11.5,-,N/A,,Clear,200,2013-04-26 14:56:00
10:56 AM,60.1,36.0,41,30.05,10.0,SSW,19.6,26.5,N/A,,Clear,200,2013-04-26 15:56:00
11:56 AM,64.9,37.0,36,30.05,10.0,SSW,13.8,23.0,N/A,,Clear,210,2013-04-26 16:56:00
12:56 PM,66.9,37.9,34,30.04,10.0,WSW,13.8,21.9,N/A,,Clear,250,2013-04-26 17:56:00
1:56 PM,69.1,39.0,33,30.03,10.0,SW,13.8,18.4,N/A,,Clear,230,2013-04-26 18:56:00
2:56 PM,70.0,39.9,33,30.04,10.0,WSW,15.0,21.9,N/A,,Clear,240,2013-04-26 19:56:00
3:56 PM,72.0,39.0,30,30.02,10.0,WSW,17.3,24.2,N/A,,Clear,240,2013-04-26 20:56:00
4:56 PM,71.1,37.9,30,30.02,10.0,WSW,16.1,21.9,N/A,,Clear,250,2013-04-26 21:56:00
5:56 PM,72.0,39.9,31,30.03,10.0,West,10.4,-,N/A,,Partly Cloudy,260,2013-04-26 22:56:00
6:56 PM,69.1,39.0,33,30.05,10.0,West,8.1,-,N/A,,Clear,280,2013-04-26 23:56:00
7:56 PM,64.0,41.0,43,30.06,10.0,Calm,Calm,-,N/A,,Clear,0,2013-04-27 00:56:00
8:56 PM,54.0,41.0,62,30.09,10.0,Calm,Calm,-,N/A,,Clear,0,2013-04-27 01:56:00
9:56 PM,51.1,41.0,68,30.10,10.0,Calm,Calm,-,N/A,,Clear,0,2013-04-27 02:56:00
10:56 PM,50.0,42.1,74,30.12,10.0,Calm,Calm,-,N/A,,Clear,0,2013-04-27 03:56:00
11:56 PM,48.9,42.1,77,30.12,10.0,Calm,Calm,-,N/A,,Clear,0,2013-04-27 04:56:00